Regional Weather Roundup
Issued by NWS Columbia, SC

Home | Current Version | Previous Version | Text Only | Print | Product List | Glossary On
Versions: 1 2 3 4 5 6 7 8 9 10 11 12 13 14 15 16 17 18 19 20 21 22 23 24 25 26 27 28 29 30 31 32 33 34 35 36 37 38 39 40 41 42 43 44 45 46 47 48 49 50
000
ASUS42 KCAE 061710
RWRCAE
REGIONAL WEATHER ROUNDUP
NATIONAL WEATHER SERVICE COLUMBIA SC
100 PM EDT WED MAY 06 2015

NOTE: "FAIR" INDICATES FEW OR NO CLOUDS BELOW 12,000 FEET WITH NO
SIGNIFICANT WEATHER AND/OR OBSTRUCTIONS TO VISIBILITY.

NOT ALL STATIONS ARE QUALITY CONTROLLED BY THE NATIONAL
WEATHER SERVICE. USE DATA WITH CAUTION...ESPECIALLY
DEWPOINT OBSERVATIONS.

SCZ001>056-GAZ040-063>065-077-061800-
...UPSTATE SOUTH CAROLINA...

CITY           SKY/WX    TMP DP  RH WIND       PRES   REMARKS
ANDERSON       MOSUNNY   81  56  42 E12       30.20F
LIBERTY        SUNNY     81  53  38 E6        30.20F
SPARTANBURG    MOSUNNY   81  52  36 E5        30.20F
CLEMSON        MOSUNNY   80  53  39 VRB3      30.22F
GREENVILLE     MOSUNNY   80  52  37 VRB3G20   30.22F
GREENWOOD      MOSUNNY   77  56  48 E6        30.22F
GREER          MOSUNNY   78  55  44 E9        30.20F
ROCK HILL      PTSUNNY   78  57  48 MISG      30.21F
CHESTER        PTSUNNY   81  54  39 CALM      30.21F
LAURENS        MOSUNNY   79  63  57 E3        30.20F


...CENTRAL SOUTH CAROLINA...

CITY           SKY/WX    TMP DP  RH WIND       PRES   REMARKS
COLUMBIA APT   PTSUNNY   80  55  42 NE12G22   30.18F
COLUMBIA OWENS PTSUNNY   80  54  40 VRB7      30.19F
DARLINGTON     MOSUNNY   81  55  41 NE12      30.20F
FLORENCE       MOSUNNY   79  49  34 NE9G20    30.18F
MCENTIRE ANGB  PTSUNNY   78  58  48 VRB5      30.18F
ORANGEBURG     MOSUNNY   77  51  40 NE9       30.18F
SUMTER SHAW    MOSUNNY   78  55  44 E12       30.17F
NEWBERRY       PTSUNNY   75  55  50 NE5       30.23F
AIKEN          FAIR      75  52  43 NE9       30.22F
BARNWELL       FAIR      81  52  36 NE10G17   30.18F
MANNING        FAIR      77  46  33 E10       30.17F
CAMDEN         FAIR      79  54  41 NE14      30.19F
LANCASTER      PTSUNNY   77  57  50 NE7       30.20F
WINNSBORO      PTSUNNY   77  55  47 E9        30.20F


...EASTERN AND COASTAL SOUTH CAROLINA...

CITY           SKY/WX    TMP DP  RH WIND       PRES   REMARKS
MYRTLE BEACH   MOSUNNY   77  59  53 E16       30.20F
N MYRTLE BCH   CLOUDY    75  60  59 E13       30.17F
CONWAY         FAIR      77  55  47 NE12      30.18F
MARION         FAIR      77  46  33 N9        30.19F
HARTSVILLE     FAIR      79  54  41 E12       30.19F
FLORENCE       MOSUNNY   79  49  34 NE9G20    30.18F
DARLINGTON     MOSUNNY   81  55  41 NE12      30.20F
CHARLESTON APT PTSUNNY   78  58  49 NE12      30.14F
MOUNT PLEASANT FAIR      79  63  57 MISG      30.15F
WALTERBORO     PTSUNNY   77  54  44 NE13      30.16F
BEAUFORT       PTSUNNY   79  61  53 NE8       30.14F


...EASTERN GEORGIA...

CITY           SKY/WX    TMP DP  RH WIND       PRES   REMARKS
AUGUSTA BUSH F PTSUNNY   79  55  43 E9G20     30.17F
AUGUSTA DANIEL PTSUNNY   80  54  40 E12       30.18F
THOMSON        MOSUNNY   79  61  54 E10       30.24F
WASHINGTON     FAIR      79  64  61 CALM      30.20F
CLAXTON        FAIR      77  61  57 E10       30.16F
SYLVANIA       PTSUNNY   77  61  57 E6        30.17F
STATESBORO       N/A     78  60  54 NE8       30.16F
SAVANNAH       CLOUDY    77  60  55 NE9G18    30.15F


...SOUTHERN NORTH CAROLINA...

CITY           SKY/WX    TMP DP  RH WIND       PRES   REMARKS
CHARLOTTE      MOSUNNY   81  54  39 NE8       30.20F
MONROE         PTSUNNY   78  57  48 VRB5      30.20F
WADESBORO      PTSUNNY   77  56  47 CALM      30.20F
ROCKINGHAM     PTSUNNY   80  55  42 E9        30.19F
RUTHERFORDTON  SUNNY     79  55  42 E5        30.22F
ASHEVILLE      SUNNY     77  41  27 E8G17     30.25F

$$


USA.gov is the U.S. government's official web portal to all federal, state and local government web resources and services.